Greenwood, SC

4:57 PM EDT on May 23, 2018 (GMT -0400)
Greenwood County

Weather History for KGRD - March, 2013

Change the Weather History Date:

Thursday, March 21, 2013

  Actual Average (KAND) Record (KAND)
Temperature  
Mean Temperature 42 °F -  
Max Temperature 52 °F 66 °F 86 °F (2017)
Min Temperature 33 °F 42 °F 20 °F (1965)
Degree Days  
Heating Degree Days 23    
Moisture  
Dew Point 15 °F    
Average Humidity 35    
Maximum Humidity 64    
Minimum Humidity 18    
Precipitation  
Precipitation 0.00 in - - ()
Sea Level Pressure  
Sea Level Pressure 29.89 in    
Wind  
Wind Speed 8 mph (West)    
Max Wind Speed 15 mph    
Max Gust Speed 24 mph    
Visibility 10 miles    
Events      
Averages and records for this station are not official NWS values.
T = Trace of Precipitation, MM = Missing Value Source: NWS Daily Summary

Daily Weather History Graph

Daily Weather History Graph

Search for Another Location

Airport or City:

Astronomy

Mar. 21, 2013 Rise Set
Actual Time 7:30 AM EDT 7:41 PM EDT
Civil Twilight 7:05 AM EDT 8:06 PM EDT
Nautical Twilight 6:36 AM EDT 8:35 PM EDT
Astronomical Twilight 6:06 AM EDT 9:05 PM EDT
Moon 2:22 PM EDT (3/21) 3:38 AM EDT (3/21)
Length of Visible Light 13h 00m
Length of Day
12h 10m
Waxing Gibbous, 68% of the Moon is Illuminated
Mar 21
Waxing Gibbous
Mar 27
Full
Apr 3
Last Quarter
Apr 10
New
Apr 18
First Quarter

Hourly Weather History & Observations

Time (EDT) Temp. Windchill Dew Point Humidity Pressure Visibility Wind Dir Wind Speed Gust Speed Precip Events Conditions
12:56 AM 46.0 °F 41.0 °F 21.0 °F 37% 29.87 in 10.0 mi WNW 10.4 mph - N/A   Clear
1:56 AM 44.1 °F 37.4 °F 26.1 °F 49% 29.87 in 10.0 mi NW 13.8 mph 24.2 mph N/A   Clear
2:56 AM 42.1 °F 37.1 °F 23.0 °F 47% 29.87 in 10.0 mi WNW 8.1 mph - N/A   Clear
3:56 AM 39.0 °F 34.8 °F 21.9 °F 50% 29.87 in 10.0 mi WNW 5.8 mph - N/A   Clear
4:56 AM 37.0 °F - 21.0 °F 52% 29.86 in 10.0 mi Calm Calm - N/A   Clear
5:56 AM 36.0 °F 32.1 °F 19.0 °F 50% 29.86 in 10.0 mi WSW 4.6 mph - N/A   Clear
6:56 AM 33.1 °F 28.7 °F 21.9 °F 64% 29.88 in 10.0 mi WSW 4.6 mph - N/A   Clear
7:56 AM 33.1 °F 26.9 °F 21.9 °F 64% 29.89 in 10.0 mi West 6.9 mph - N/A   Clear
8:56 AM 37.0 °F 31.6 °F 19.9 °F 50% 29.89 in 10.0 mi WNW 6.9 mph - N/A   Clear
9:56 AM 39.9 °F 35.8 °F 14.0 °F 35% 29.90 in 10.0 mi Variable 5.8 mph - N/A   Clear
10:56 AM 42.1 °F 37.1 °F 12.0 °F 29% 29.91 in 10.0 mi NW 8.1 mph 17.3 mph N/A   Clear
11:56 AM 45.0 °F 40.1 °F 9.0 °F 23% 29.90 in 10.0 mi WNW 9.2 mph 16.1 mph N/A   Clear
12:56 PM 46.0 °F 41.9 °F 6.1 °F 20% 29.89 in 10.0 mi West 8.1 mph - N/A   Clear
1:56 PM 48.9 °F - 8.1 °F 19% 29.89 in 10.0 mi West 10.4 mph 21.9 mph N/A   Clear
2:56 PM 50.0 °F - 7.0 °F 18% 29.86 in 10.0 mi WSW 11.5 mph 18.4 mph N/A   Clear
3:56 PM 51.1 °F - 8.1 °F 18% 29.85 in 10.0 mi West 15.0 mph 20.7 mph N/A   Clear
4:56 PM 51.1 °F - 9.0 °F 18% 29.85 in 10.0 mi West 10.4 mph 18.4 mph N/A   Clear
5:56 PM 51.1 °F - 8.1 °F 18% 29.86 in 10.0 mi WNW 10.4 mph 20.7 mph N/A   Clear
6:56 PM 48.9 °F - 9.0 °F 20% 29.88 in 10.0 mi West 8.1 mph - N/A   Clear
7:56 PM 46.0 °F 41.9 °F 10.9 °F 24% 29.90 in 10.0 mi West 8.1 mph - N/A   Clear
8:56 PM 43.0 °F - 12.0 °F 28% 29.92 in 10.0 mi Calm Calm - N/A   Clear
9:56 PM 39.0 °F - 14.0 °F 36% 29.96 in 10.0 mi Calm Calm - N/A   Clear
10:56 PM 37.9 °F 35.5 °F 14.0 °F 38% 29.97 in 10.0 mi NNE 3.5 mph - N/A   Clear
11:56 PM 36.0 °F - 15.1 °F 43% 29.99 in 10.0 mi Calm Calm - N/A   Clear